Chillicothe, MO

6:37 AM CDT on August 27, 2016 (GMT -0500)
Chillicothe

Weather History for KCDJ - October, 2013

Change the Weather History Date:

Monday, October 14, 2013

  Actual Average (KIRK) Record (KIRK)
Temperature  
Mean Temperature 57 °F 54 °F  
Max Temperature 71 °F 65 °F 89 °F (1938)
Min Temperature 44 °F 43 °F 24 °F (1937)
Degree Days  
Heating Degree Days 8 11  
Month to date heating degree days 135  
Since 1 July heating degree days 242  
Cooling Degree Days 0 0  
Month to date cooling degree days 10  
Year to date cooling degree days 937  
Growing Degree Days 7 (Base 50)    
Moisture  
Dew Point 39 °F    
Average Humidity 51    
Maximum Humidity 78    
Minimum Humidity 31    
Precipitation  
Precipitation 0.00 in 0.11 in 2.01 in (1981)
Month to date precipitation 1.53  
Year to date precipitation 33.05  
Sea Level Pressure  
Sea Level Pressure 30.15 in    
Wind  
Wind Speed 6 mph (SE)    
Max Wind Speed 16 mph    
Max Gust Speed 25 mph    
T = Trace of Precipitation, MM = Missing Value Source: NWS Daily Summary

Daily Weather History Graph

Daily Weather History Graph

Search for Another Location

Airport or City:

Trip Planner

Search our weather history database for the weather conditions in past years. The results will help you decide how hot, cold, wet, or windy it might be!

Date:

Astronomy

Oct. 14, 2013 Rise Set
Actual Time 7:23 AM CDT 6:35 PM CDT
Civil Twilight 6:56 AM CDT 7:03 PM CDT
Nautical Twilight 6:25 AM CDT 7:34 PM CDT
Astronomical Twilight 5:54 AM CDT 8:05 PM CDT
Moon 4:05 PM CDT (10/14) 2:41 AM CDT (10/14)
Length of Visible Light 12h 06m
Length of Day
11h 12m
Waxing Gibbous, 79% of the Moon is Illuminated
Oct 14
Waxing Gibbous
Oct 18
Full
Oct 26
Last Quarter
Nov 3
New
Nov 9
First Quarter

Hourly Weather History & Observations

Time (CDT) Temp. Dew Point Humidity Pressure Visibility Wind Dir Wind Speed Gust Speed Precip Events Conditions
12:52 AM 51.1 °F 33.1 °F 50% 30.34 in - Calm Calm - N/A   Unknown
1:52 AM 50.0 °F 32.0 °F 50% 30.34 in - Calm Calm - N/A   Unknown
2:52 AM 50.0 °F 32.0 °F 50% 30.33 in - SE 3.5 mph - N/A   Unknown
3:52 AM 44.1 °F 34.0 °F 68% 30.32 in - Calm Calm - N/A   Unknown
4:52 AM 48.0 °F 33.1 °F 56% 30.30 in - Variable 3.5 mph - N/A   Unknown
5:52 AM 46.9 °F 32.0 °F 56% 30.29 in - Variable 3.5 mph - N/A   Unknown
6:52 AM 46.9 °F 33.1 °F 59% 30.29 in - ESE 4.6 mph - N/A   Unknown
7:52 AM 48.9 °F 34.0 °F 56% 30.27 in - ESE 9.2 mph - N/A   Unknown
8:52 AM 51.1 °F 35.1 °F 54% 30.27 in - SE 6.9 mph - N/A   Unknown
9:52 AM 55.0 °F 36.0 °F 49% 30.25 in - ESE 6.9 mph 19.6 mph N/A   Unknown
10:52 AM 61.0 °F 36.0 °F 39% 30.22 in - SE 16.1 mph 25.3 mph N/A   Unknown
11:52 AM 64.0 °F 37.0 °F 37% 30.18 in - SE 10.4 mph 23.0 mph N/A   Unknown
12:52 PM 66.0 °F 37.0 °F 34% 30.16 in - SE 10.4 mph 25.3 mph N/A   Unknown
1:52 PM 69.1 °F 37.0 °F 31% 30.10 in - SE 12.7 mph 24.2 mph N/A   Unknown
2:52 PM 70.0 °F 37.9 °F 31% 30.07 in - SSE 15.0 mph 23.0 mph N/A   Unknown
3:52 PM 69.1 °F 39.0 °F 33% 30.04 in - SE 12.7 mph 21.9 mph N/A   Unknown
4:52 PM 68.0 °F 41.0 °F 37% 30.02 in - SSE 11.5 mph 21.9 mph N/A   Unknown
5:52 PM 66.0 °F 45.0 °F 47% 30.01 in - SSE 10.4 mph 23.0 mph N/A   Unknown
6:52 PM 64.9 °F 46.0 °F 50% 29.99 in - SE 9.2 mph 18.4 mph N/A   Unknown
7:52 PM 64.0 °F 48.0 °F 56% 29.98 in - SE 12.7 mph 19.6 mph N/A   Unknown
8:52 PM 64.0 °F 48.9 °F 58% 29.95 in - SE 10.4 mph 21.9 mph N/A   Unknown
9:52 PM 63.0 °F 51.1 °F 65% 29.95 in - SSE 11.5 mph 20.7 mph N/A   Unknown
10:52 PM 63.0 °F 53.1 °F 70% 29.93 in - SSE 9.2 mph 20.7 mph N/A   Unknown
11:52 PM 63.0 °F 55.9 °F 78% 29.91 in - SSE 11.5 mph 19.6 mph N/A   Unknown